Starlink 35605

operational
NORAD ID: 66150 Int'l Des: 2025-240 Owner: SPXS Country: US Constellation: starlink
LEOCIRCULAR

关于 Starlink 35605

正在加载描述...

实时位置

正在加载3D地球...

即将过境

高度历史

Altitude vs Time

uPlot chart will show altitude changes over time

两行轨道根数

1 66150C 25240F 25298.74215278 .00638140 00000+0 10415-2 0 2989
2 66150 53.1580 338.8177 0009111 270.4105 320.3971 16.01849589 17
Epoch: Oct 25, 2025 • Age: 155 hours

当前状态

高度 256.7 km
速度 7.76 km/s
星下点 -49.85°S, 35.22°E
发射日期 Oct 25, 2025
运行时间 5 days
类型 internet

技术详情

分类 Payload
质量 575.00 kg
干质量 530.00 kg
总质量 575.00 kg
长度 0.30 m
直径 4.10 m
跨度 29.00 m
形状 Box + pan
制造商 SPXS
平台类型 Starlink V2MO
阶段状态 In Orbit
所有者/国家 SPXS/US

大型星座

Loading constellations...